Regional Weather Roundup
Issued by NWS

Home | Current Version | Previous Version | Graphics & Text | Print | Product List | Glossary On
Versions: 1 2 3 4 5 6 7 8 9 10 11 12 13 14 15 16 17 18 19 20 21 22 23 24 25 26 27 28 29 30 31 32 33 34 35 36 37 38 39 40 41 42 43 44 45 46 47 48 49 50
659
ASUS45 KABQ 231701
RWRNM
NEW MEXICO REGIONAL WEATHER ROUNDUP
NATIONAL WEATHER SERVICE ALBUQUERQUE NM
1100 AM MDT SUN JUL 23 2017

NOTE: "FAIR" MEANS FEW OR NO CLOUDS BELOW 12,000 FEET AGL WITH NO
       SIGNIFICANT WEATHER OR OBSTRUCTIONS TO VISION.

      THIS PRODUCT IS RELEASED AS TWO VERSIONS.  ONE VERSION NEAR
      THE TOP OF THE HOUR CONTAINING PRELIMINARY DATA FROM ALBUQUERQUE
      AND OTHER STATIONS.  A FINAL VERSION WITH ADDITIONAL DATA IS
      ISSUED ABOUT 10 MINUTES AFTER THE HOUR.

NMZ501-503-504-510>518-231800-
NORTHWEST PLATEAU/NORTHCENTRAL MOUNTAINS

CITY           SKY/WX    TMP DP  RH WIND       PRES   REMARKS
FARMINGTON     FAIR      80  50  34 E9        30.20F
LOS ALAMOS     PTSUNNY   74  46  37 N8G18     30.35S
SANTA FE       FAIR      80  51  36 N12       30.27S
TAOS           PTSUNNY   73  48  40 N10       30.35S
ANGEL FIRE     CLOUDY    67  51  56 NE8       30.44F

$$
NMZ402-403-502-505>509-231800-
WESTCENTRAL MOUNTAINS/SOUTHWEST MOUNTAINS

CITY           SKY/WX    TMP DP  RH WIND       PRES   REMARKS
GALLUP         FAIR      77  49  37 CALM      30.26F
GRANTS         FAIR      77  47  34 SE10      30.30S
SILVER CITY    FAIR      75  61  61 SE3       30.20S

$$
NMZ407-409-411-412-231800-
SOUTHERN DESERTS

CITY           SKY/WX    TMP DP  RH WIND       PRES   REMARKS
DEMING         FAIR      78  65  63 VRB6      30.12S
LAS CRUCES     FAIR      78  63  60 CALM      30.15S
HOLLOMAN AFB   FAIR      87  64  46 SW6       30.13S
ALAMOGORDO     FAIR      81  61  50 S9        30.13S
T OR C         FAIR      81  50  33 CALM      30.16S

$$
NMZ519>523-231800-
CENTRAL VALLEYS/CENTRAL HIGHLANDS

CITY           SKY/WX    TMP DP  RH WIND       PRES   REMARKS
ALBUQUERQUE    PTSUNNY   82  52  35 E13       30.20S
DOUBLE EAGLE   MOSUNNY   81  52  36 E12G17    30.25R
MORIARTY ARPT  FAIR      82  50  33 S3        30.28S
CLINES CORNERS FAIR      76  47  35 E16       30.33S
BELEN          NOT AVBL
SOCORRO        FAIR      77  56  48 E3        30.19S

$$
NMZ524>526-539-540-231800-
SOUTHCENTRAL MOUNTAINS

CITY           SKY/WX    TMP DP  RH WIND       PRES   REMARKS
RUIDOSO        PTSUNNY   68  57  68 SE14      30.34S

$$
NMZ527>531-231800-
NORTHEAST HIGHLANDS/NORTHEAST PLAINS

CITY           SKY/WX    TMP DP  RH WIND       PRES   REMARKS
LAS VEGAS      PTSUNNY   77  48  35 NE12G20   30.32S
RATON          FAIR      81  51  35 E7        30.28S
CLAYTON        FAIR      85  55  35 NE21G28   30.20R

$$
NMZ532>537-231800-
EASTCENTRAL PLAINS

CITY           SKY/WX    TMP DP  RH WIND       PRES   REMARKS
SANTA ROSA     FAIR      84  53  34 E5        30.17S HAZE
TUCUMCARI      FAIR      87  60  40 NE8       30.10F
CANNON AFB     FAIR      82  59  44 S3        30.15S
CLOVIS AIRPORT PTSUNNY   82  58  43 SE7       30.14F

$$
NMZ028-029-538-231800-
SOUTHEAST PLAINS

CITY           SKY/WX    TMP DP  RH WIND       PRES   REMARKS
ROSWELL        FAIR      83  62  49 VRB7      30.11F
ARTESIA        FAIR      81  63  54 VRB5G13   30.11F
CARLSBAD       FAIR      74  70  87 SW6       30.10R
HOBBS          PTSUNNY   81  61  50 W5        30.13S


$$




USA.gov is the U.S. government's official web portal to all federal, state and local government web resources and services.